Lid_Strength_Index
1 1 1 1 2 3 3 3 4 4 4 5 5 5 5 6 7 8 12 11 11 14 14 14 13 15 14 14 17 14 14 14 14 18 21 20 21 21 22 21 19 20 21 21 22 24 24 17 18 23 20 18 18 19
1 1 2 2 2 2 3 4 4 4 4 5 5 5 6 6 7 7 12 12 10 13 14 11 12 11 12 12 13 13 14 13 13 17 17 17 18 18 19 21 16 20 19 20 19 20 17 17 19 18 18 19 19 19
1 1 1 2 3 2 3 3 3 4 4 5 5 5 6 6 7 8 11 12 11 14 15 13 14 12 10 11 9 13 12 12 12 12 15 16 19 18 20 19 19 16 16 17 17 16 18 18 18 18 18 19 19 18
1 1 1 2 2 3 3 3 4 4 4 5 5 5 6 7 8 9 12 12 12 14 17 16 12 13 12 11 10 10 11 10 10 11 14 16 18 15 17 17 18 17 17 17 16 15 16 17 19 19 19 18 19 19
1 1 1 2 2 3 3 3 4 4 5 5 5 6 6 7 8 11 12 13 13 14 15 17 15 15 13 12 12 11 11 12 12 14 15 16 15 16 15 16 17 17 18 17 18 17 17 19 19 19 20 20 20 20
1 1 2 2 2 3 3 3 4 5 5 5 5 6 7 8 9 11 15 13 13 13 16 21 17 16 14 13 13 12 12 12 12 14 15 15 14 16 18 18 17 16 16 16 17 16 17 19 19 19 20 21 21 21
1 1 1 2 3 3 3 4 4 5 5 5 6 7 8 8 11 14 15 14 12 13 16 22 21 16 16 15 14 14 13 14 14 14 16 16 15 17 17 21 18 17 18 18 18 17 18 18 20 20 21 22 23 24
1 1 1 2 3 3 4 4 4 5 6 6 7 8 9 9 11 15 14 13 14 16 17 22 24 20 16 17 17 15 16 15 18 17 16 19 19 20 22 17 17 17 18 20 20 19 19 20 20 21 21 22 23 24
1 1 1 2 3 3 4 5 5 6 7 7 8 9 12 14 15 16 12 14 15 16 20 21 22 24 17 16 16 17 16 19 22 20 24 25 23 24 19 17 17 18 18 19 21 22 21 22 23 24 25 25 24 25
1 1 2 2 3 4 4 5 6 7 8 8 11 14 17 15 12 13 15 18 18 20 20 22 23 24 18 17 19 20 21 22 26 25 27 28 23 20 20 21 17 18 19 20 23 25 26 26 26 27 27 28 27 27
1 2 2 3 3 4 5 6 7 7 7 13 15 18 16 13 15 17 22 22 23 24 21 23 24 25 20 22 24 22 25 27 27 26 27 26 23 19 22 25 26 23 23 25 26 26 24 23 24 27 29 30 28 29
2 2 2 3 4 4 6 7 7 9 13 13 15 15 15 16 18 20 24 26 26 23 25 24 24 23 24 21 24 27 27 28 26 29 28 28 20 25 26 28 28 28 27 27 27 25 25 24 26 27 28 30 32 31
2 2 2 3 4 5 6 6 6 10 12 14 15 18 17 21 23 25 25 24 25 23 25 25 26 24 26 23 27 26 28 27 29 29 26 21 24 27 27 29 33 33 30 28 29 29 28 29 30 31 30 33 31 31
2 2 3 3 5 6 6 8 9 9 12 14 17 21 20 25 23 21 20 20 24 23 22 22 25 25 25 26 26 26 29 29 29 28 24 21 23 25 28 31 30 32 32 29 30 30 30 30 31 32 32 32 30 31
2 2 3 4 6 6 8 8 7 13 13 15 15 18 22 23 26 28 27 25 26 20 22 24 25 22 28 29 27 29 30 29 25 23 20 22 27 25 28 30 29 29 29 30 32 30 31 32 31 34 35 33 32 32
2 3 4 5 5 7 7 8 13 14 16 17 20 22 25 23 28 28 26 27 26 21 23 21 26 26 28 26 28 27 25 24 21 21 24 28 27 27 28 28 28 28 29 29 30 31 31 31 31 32 34 34 34 32
3 8 4 5 6 7 7 12 12 16 16 18 21 22 23 22 22 24 23 24 24 23 22 23 25 25 27 28 27 23 23 20 22 26 27 27 27 27 28 28 28 28 29 29 31 31 34 34 32 32 32 36 33 34
6 5 5 6 7 9 13 14 14 15 18 22 22 24 24 26 26 26 27 22 23 23 23 22 25 27 25 24 24 21 24 28 30 29 28 30 30 30 27 27 28 28 29 30 30 33 33 32 32 33 32 33 33 35
5 6 6 7 8 12 14 16 15 19 24 24 24 24 25 28 29 27 26 27 27 26 24 25 26 24 22 21 21 22 26 26 27 29 31 33 29 29 29 29 29 29 29 30 30 30 30 30 29 29 30 30 31 31
6 6 6 6 9 13 17 18 17 19 23 23 23 25 27 29 29 27 28 27 25 25 25 25 22 20 20 21 22 22 24 24 26 30 31 31 31 30 29 27 27 29 29 30 30 28 29 32 31 28 28 29 28 29
7 8 9 13 16 18 19 20 23 22 23 23 24 24 28 27 27 27 27 27 26 25 23 20 21 23 29 30 29 27 24 23 24 24 25 28 28 27 27 28 28 27 28 28 28 29 29 29 29 28 28 29 28 28
11 9 13 13 18 19 22 22 22 22 23 24 23 24 26 28 28 27 27 27 25 21 20 21 24 26 29 29 29 29 27 27 29 27 26 26 27 27 27 27 27 27 27 27 27 28 28 28 28 28 28 30 28 29
9 11 13 14 18 19 23 22 21 21 22 23 23 26 28 29 29 29 28 25 22 19 23 27 31 32 30 34 33 33 32 28 27 28 27 28 25 26 26 27 25 26 27 27 26 27 28 28 28 28 29 29 29 30
12 17 18 19 19 23 22 22 21 21 21 22 24 28 29 29 29 29 28 24 22 28 30 32 31 32 32 34 33 33 33 30 27 28 26 26 27 27 26 26 26 26 26 26 27 28 28 29 28 29 29 29 29 30
14 18 17 22 23 23 23 22 22 21 22 23 25 29 30 31 29 29 27 23 24 28 30 33 32 30 28 31 32 33 34 28 26 27 30 28 28 28 28 29 29 28 26 27 28 29 29 29 29 29 28 28 28 29
19 22 21 23 24 21 21 22 21 21 21 23 28 32 31 29 29 25 24 25 28 31 32 33 33 32 32 31 32 33 32 33 30 30 31 28 26 26 28 29 30 31 29 26 28 29 29 29 29 29 28 27 28 28
20 22 24 24 21 20 21 21 21 21 23 23 27 29 29 28 27 24 30 33 32 35 36 36 36 33 32 34 35 35 34 33 32 31 30 29 30 28 26 27 28 27 27 26 27 28 29 29 28 28 28 28 28 28
22 22 21 22 22 21 20 20 21 22 23 25 24 27 25 23 22 30 34 35 37 36 36 36 36 36 35 35 35 33 33 34 31 30 29 30 31 31 30 29 28 25 26 26 27 27 27 27 27 27 28 28 29 29
25 26 22 25 26 25 24 23 23 27 29 23 23 25 26 31 35 35 36 37 38 37 36 36 36 35 34 33 33 32 31 30 31 31 31 32 32 31 31 28 28 27 27 27 25 25 26 26 26 27 27 28 29 30
25 27 24 26 23 24 29 32 31 34 33 34 34 32 32 34 38 37 37 37 36 36 36 35 35 34 35 34 33 32 32 32 31 29 28 29 29 29 29 28 28 27 26 26 26 25 23 26 27 29 30 31 31 31
31 28 27 27 29 33 34 34 35 35 35 35 36 33 32 36 38 37 36 36 36 35 35 35 35 33 32 32 32 32 31 31 32 31 30 29 29 28 28 28 27 26 26 26 25 27 29 29 29 30 30 30 30 29
30 31 29 29 32 34 34 34 33 33 33 32 34 34 33 33 34 37 36 36 36 35 33 34 32 31 30 29 29 29 30 30 30 29 29 29 28 28 27 27 26 25 26 27 28 28 28 29 29 29 29 29 29 29
34 34 34 34 34 33 33 33 32 32 33 34 35 36 36 34 33 37 34 35 37 37 36 33 32 31 30 30 30 30 29 28 28 26 27 27 27 26 26 26 26 26 28 28 28 28 29 29 29 29 29 29 29 29